[[{"header":{"parameterUnit":"m.s-1","parameterCategory":2,"la1":30.2991,"la2":30.254,"lo1":-89.0895,"lo2":-89.0444,"dy":0.0017,"dx":0.0017,"nx":28,"ny":28,"refTime":"2025-07-11T09:00:00:Z","depth":"0","parameterNumber":2,"parameterNumberName":"U-component_of_CURRENTS"},"data":[0,0,0,0,0,0,0,0,0,0,0,0,0,0,0,0,0,0,0,0,0,0,0,0,0,0,0,0,0,0,0,0,0,0,0,0,0,0,0,0,0,0,0,0,0,0,0,0,0,0,0,0,0,0,0,0,0,0,-0.3347,-0.3347,0,-0.337,-0.3371,-0.3371,-0.3329,-0.3328,-0.3327,-0.3325,-0.328,-0.328,-0.328,0,0,0,0,0,0,0,0,0,0,0,0,0,-0.3331,-0.3331,-0.3347,-0.3347,-0.3348,-0.337,-0.3371,-0.3371,-0.333,-0.3328,-0.3326,-0.3325,-0.328,-0.328,-0.328,0,0,0,0,0,0,0,0,0,0,0,0,0,-0.3344,-0.3331,-0.3347,-0.333,-0.3329,-0.337,-0.3371,-0.3371,-0.333,-0.3328,-0.3326,-0.3324,-0.328,-0.328,-0.328,-0.3322,0,0,-0.328,-0.328,0,0,0,0,0,0,0,0,-0.3343,-0.3344,-0.3332,-0.3331,-0.333,-0.3345,-0.3348,-0.3351,-0.333,-0.3329,-0.3325,-0.3323,-0.3297,-0.3296,-0.3305,-0.3319,-0.3317,-0.328,-0.328,-0.328,-0.328,0,0,0,0,0,0,0,-0.3342,-0.3344,-0.3356,-0.3333,-0.3331,-0.3344,-0.3342,-0.3349,-0.3323,-0.3329,-0.3326,-0.333,-0.3296,-0.3305,-0.3304,-0.3317,-0.328,-0.328,-0.3281,-0.3281,-0.3355,-0.3357,0,0,0,0,0,0,-0.3339,-0.3343,-0.3355,-0.3357,-0.3332,-0.3345,-0.3344,-0.3342,-0.3324,-0.332,-0.3332,-0.3328,-0.3306,-0.3303,-0.3302,-0.3337,-0.328,-0.3281,-0.3281,-0.3353,-0.3355,-0.3357,0,0,0,0,0,0,-0.3339,-0.334,-0.3354,-0.3351,-0.3353,-0.3347,-0.3346,-0.3344,-0.3344,-0.3327,-0.3321,-0.3332,-0.3304,-0.3301,-0.3319,-0.3334,-0.3281,-0.3281,-0.3351,-0.3354,-0.3356,-0.3414,0,0,0,0,0,0,-0.3338,-0.334,-0.3334,-0.335,-0.3353,-0.3376,-0.3348,-0.3346,-0.335,-0.3345,-0.3326,-0.332,-0.3303,-0.332,-0.332,-0.3334,-0.3281,-0.3348,-0.3352,-0.3355,-0.341,-0.3419,-0.3426,0,0,0,0,0,-0.3337,-0.3339,-0.3334,-0.3335,-0.3347,-0.3377,-0.338,-0.3369,-0.3352,-0.336,-0.3357,-0.332,-0.3342,-0.3322,-0.3321,-0.3335,-0.3347,-0.3351,-0.3355,-0.3406,-0.3417,-0.3426,0,0,0,0,0,0,-0.3334,-0.3336,-0.333,-0.3332,-0.3352,-0.337,-0.3372,-0.3374,-0.3381,-0.3372,-0.3351,-0.3347,-0.337,-0.3354,-0.3333,-0.337,-0.3336,-0.3341,-0.3375,-0.3385,-0.3393,-0.3406,-0.3281,0,0,0,0,0,-0.3332,-0.3326,-0.3345,-0.3346,-0.3354,-0.3366,-0.3375,-0.3377,-0.3388,-0.3387,-0.3376,-0.3374,-0.3393,-0.3388,-0.3397,-0.3419,-0.3407,-0.3428,-0.3436,-0.3443,-0.3455,-0.3471,-0.3481,-0.3372,-0.3372,-0.3371,0,0,-0.3329,-0.3332,-0.3326,-0.3345,-0.3353,-0.3381,-0.3365,-0.3385,-0.3413,-0.3383,-0.3404,-0.3406,-0.3409,-0.3437,-0.3443,-0.3418,-0.3466,-0.3448,-0.3454,-0.3463,-0.3477,-0.3487,-0.3496,-0.3374,-0.3374,-0.3373,0,0,-0.3326,-0.3325,-0.3319,-0.3345,-0.3367,-0.3388,-0.3395,-0.3418,-0.3426,-0.3461,-0.3453,-0.347,-0.3479,-0.3491,-0.3499,-0.3562,-0.3517,-0.3555,-0.3595,-0.361,-0.3619,-0.3627,-0.3612,-0.3618,-0.3549,-0.3549,-0.3549,0,-0.3319,-0.3325,-0.3328,-0.3347,-0.3374,-0.3393,-0.3423,-0.3448,-0.3475,-0.3498,-0.347,-0.3521,-0.351,-0.3567,-0.3584,-0.3578,-0.357,-0.3553,-0.362,-0.3627,-0.3634,-0.3617,-0.3623,-0.3552,-0.3552,-0.3552,-0.3551,0,-0.3317,-0.3336,-0.3343,-0.337,-0.3404,-0.3437,-0.3481,-0.3513,-0.3525,-0.3549,-0.36,-0.3602,-0.3628,-0.3629,-0.3623,-0.3675,-0.3647,-0.3634,-0.359,-0.3648,-0.3627,-0.3632,-0.3557,-0.3556,-0.3555,-0.3554,0,0,-0.3261,-0.3327,-0.3329,-0.3363,-0.3426,-0.3459,-0.3521,-0.3586,-0.3629,-0.3649,-0.37,-0.3732,-0.3727,-0.3738,-0.3732,-0.3741,-0.3769,-0.3707,-0.3706,-0.3683,-0.3784,-0.364,-0.363,-0.3765,-0.3767,-0.3768,-0.3744,0,-0.3257,-0.3312,-0.3346,-0.3413,-0.3452,-0.3513,-0.3573,-0.3638,-0.3681,-0.3733,-0.3757,-0.3793,-0.3772,-0.3778,-0.3795,-0.378,-0.3788,-0.3776,-0.3739,-0.3738,-0.3595,-0.3634,-0.3363,-0.3308,-0.3748,-0.3749,-0.3749,0,-0.3234,-0.3284,-0.335,-0.3457,-0.3477,-0.352,-0.3631,-0.3687,-0.3776,-0.3806,-0.3855,-0.3868,-0.3903,-0.3866,-0.3876,-0.3867,-0.3839,-0.3818,-0.3816,-0.3667,-0.3603,-0.3326,-0.33,-0.3163,-0.3756,-0.3756,-0.3755,0,-0.3194,-0.3286,-0.3347,-0.3382,-0.3498,-0.354,-0.36,-0.3699,-0.3757,-0.3843,-0.388,-0.3931,-0.3938,-0.3936,-0.3899,-0.3887,-0.3896,-0.3866,-0.3715,-0.3703,-0.3458,-0.3421,-0.3286,-0.3883,-0.3883,-0.3883,-0.3883,0,-0.3179,-0.3223,-0.3332,-0.3363,-0.344,-0.3523,-0.3602,-0.3673,-0.3773,-0.3839,-0.39,-0.3947,-0.3956,-0.3964,-0.3929,-0.3829,-0.3917,-0.3727,-0.3693,-0.3468,-0.3434,-0.3291,-0.3337,-0.3882,-0.3883,-0.3883,-0.3883,0,-0.3121,-0.3192,-0.3263,-0.3384,-0.3418,-0.3468,-0.3588,-0.3652,-0.3744,-0.3831,-0.3857,-0.3952,-0.3952,-0.3953,-0.3935,-0.3833,-0.3667,-0.3726,-0.3445,-0.3377,-0.3053,-0.3115,-0.3076,-0.3006,-0.3521,-0.3517,-0.3514,0,-0.3094,-0.313,-0.3253,-0.3297,-0.3345,-0.343,-0.3493,-0.3614,-0.3684,-0.3827,-0.3864,-0.3912,-0.3922,-0.3837,-0.3665,-0.3547,-0.3567,-0.3235,-0.3157,-0.2996,-0.3042,-0.3127,-0.308,-0.2853,-0.2844,-0.2838,-0.2832,0,-0.3049,-0.3094,-0.3158,-0.3241,-0.3308,-0.3388,-0.348,-0.3531,-0.3674,-0.374,-0.3819,-0.3834,-0.373,-0.3458,-0.329,-0.3195,-0.3078,-0.3089,-0.2996,-0.2572,-0.2587,-0.2512,-0.2913,-0.2772,-0.2778,-0.2783,-0.2786,-0.2788,-0.3,-0.3032,-0.3111,-0.3181,-0.3257,-0.3315,-0.331,-0.3411,-0.3476,-0.3481,-0.3645,-0.3452,-0.3163,-0.2858,-0.2817,-0.24,-0.2677,-0.2242,-0.2349,-0.2464,-0.2337,-0.2598,-0.2379,-0.2382,-0.2385,-0.2388,-0.239,0,-0.2931,-0.298,-0.3047,-0.3105,-0.3123,-0.3199,-0.3275,-0.3206,-0.319,-0.3104,-0.3103,-0.2571,-0.2324,-0.2086,-0.1697,-0.1617,-0.1645,-0.1624,-0.1651,-0.1656,-0.188,-0.1777,-0.1326,-0.1327,-0.1327,-0.1327,-0.1327,-0.1327,-0.2894,-0.2926,-0.2963,-0.2949,-0.2972,-0.2902,-0.2896,-0.2784,-0.2625,-0.2214,-0.1785,-0.1596,-0.1296,-0.127,-0.111,-0.1118,-0.1165,-0.1175,-0.1345,-0.1426,-0.149,-0.1552,-0.1456,-0.0946,-0.0946,-0.095,-0.095,-0.095]},{"header":{"parameterUnit":"m.s-1","parameterCategory":2,"la1":30.2991,"la2":30.254,"lo1":-89.0895,"lo2":-89.0444,"dy":0.0017,"dx":0.0017,"nx":28,"ny":28,"refTime":"2025-07-11T09:00:00:Z","depth":"0","parameterNumber":3,"parameterNumberName":"V-component_of_CURRENTS"},"data":[0,0,0,0,0,0,0,0,0,0,0,0,0,0,0,0,0,0,0,0,0,0,0,0,0,0,0,0,0,0,0,0,0,0,0,0,0,0,0,0,0,0,0,0,0,0,0,0,0,0,0,0,0,0,0,0,0,0,-0.1302,-0.1302,0,-0.1244,-0.1243,-0.1242,-0.1137,-0.1135,-0.1134,-0.1132,-0.0963,-0.096,-0.0957,0,0,0,0,0,0,0,0,0,0,0,0,0,-0.1219,-0.1222,-0.1302,-0.1302,-0.1301,-0.1244,-0.1243,-0.1242,-0.1137,-0.1135,-0.1133,-0.1131,-0.0964,-0.096,-0.0956,0,0,0,0,0,0,0,0,0,0,0,0,0,-0.1213,-0.1222,-0.1302,-0.1246,-0.124,-0.1244,-0.1243,-0.1241,-0.1137,-0.1135,-0.1133,-0.113,-0.0965,-0.096,-0.0956,-0.0975,0,0,-0.0942,-0.094,0,0,0,0,0,0,0,0,-0.1214,-0.1216,-0.1254,-0.125,-0.1244,-0.1199,-0.1152,-0.1148,-0.1138,-0.1171,-0.1132,-0.1129,-0.1036,-0.1026,-0.1015,-0.0967,-0.096,-0.0942,-0.0939,-0.0937,-0.0936,0,0,0,0,0,0,0,-0.1215,-0.1217,-0.1274,-0.1254,-0.1248,-0.1189,-0.1186,-0.115,-0.1112,-0.1168,-0.1162,-0.1164,-0.1032,-0.102,-0.101,-0.0957,-0.0942,-0.0938,-0.0935,-0.0933,-0.0904,-0.0906,0,0,0,0,0,0,-0.124,-0.1219,-0.1276,-0.1273,-0.1228,-0.1193,-0.1189,-0.1212,-0.1115,-0.11,-0.1166,-0.1159,-0.1029,-0.1015,-0.1003,-0.1029,-0.0937,-0.0933,-0.093,-0.0902,-0.0905,-0.0907,0,0,0,0,0,0,-0.1239,-0.1247,-0.1278,-0.1246,-0.1247,-0.1198,-0.1224,-0.1212,-0.1198,-0.1115,-0.1096,-0.1163,-0.1026,-0.101,-0.0985,-0.1021,-0.0931,-0.0926,-0.09,-0.0903,-0.0906,-0.1074,0,0,0,0,0,0,-0.1237,-0.1247,-0.127,-0.1249,-0.125,-0.1301,-0.1226,-0.1213,-0.1205,-0.1195,-0.1107,-0.1089,-0.1023,-0.0993,-0.0981,-0.1013,-0.0923,-0.0897,-0.0901,-0.0905,-0.1066,-0.1082,-0.1096,0,0,0,0,0,-0.1235,-0.1293,-0.1272,-0.1279,-0.1285,-0.1304,-0.1299,-0.1251,-0.1208,-0.1224,-0.1159,-0.1091,-0.1007,-0.0991,-0.0976,-0.1008,-0.0896,-0.09,-0.0904,-0.1059,-0.1079,-0.1096,0,0,0,0,0,0,-0.1273,-0.1287,-0.1264,-0.1323,-0.1319,-0.1288,-0.1303,-0.1267,-0.123,-0.1214,-0.1119,-0.1099,-0.1089,-0.1032,-0.1017,-0.1011,-0.0939,-0.0941,-0.1062,-0.108,-0.1095,-0.114,-0.0919,0,0,0,0,0,-0.1295,-0.1337,-0.1331,-0.1376,-0.1382,-0.1341,-0.134,-0.1313,-0.128,-0.1261,-0.1198,-0.1136,-0.11,-0.1076,-0.1032,-0.1036,-0.0994,-0.1045,-0.1061,-0.1074,-0.1102,-0.1071,-0.1087,-0.0921,-0.0921,-0.0921,0,0,-0.1321,-0.1336,-0.1357,-0.1386,-0.1375,-0.1417,-0.1335,-0.1354,-0.1381,-0.125,-0.1259,-0.1187,-0.1113,-0.1113,-0.1103,-0.1067,-0.1102,-0.108,-0.1092,-0.1112,-0.1077,-0.1094,-0.1108,-0.0924,-0.0924,-0.0923,0,0,-0.1414,-0.1411,-0.148,-0.1488,-0.1497,-0.1477,-0.149,-0.1467,-0.1447,-0.1453,-0.1363,-0.1323,-0.1266,-0.1223,-0.1193,-0.127,-0.1183,-0.1246,-0.1361,-0.1331,-0.1345,-0.1356,-0.1339,-0.1348,-0.1255,-0.1255,-0.1255,0,-0.1441,-0.1528,-0.1501,-0.1567,-0.1584,-0.1516,-0.1584,-0.1572,-0.1539,-0.1526,-0.1479,-0.1392,-0.1327,-0.1323,-0.1352,-0.1307,-0.1277,-0.1297,-0.1353,-0.1363,-0.1372,-0.1351,-0.1358,-0.1264,-0.1263,-0.1262,-0.1261,0,-0.1587,-0.1643,-0.1687,-0.1744,-0.1759,-0.1806,-0.1786,-0.1786,-0.1741,-0.1705,-0.1681,-0.1594,-0.1534,-0.1512,-0.1461,-0.1489,-0.1444,-0.1376,-0.1311,-0.1399,-0.1371,-0.1376,-0.1276,-0.1273,-0.127,-0.1268,0,0,-0.1676,-0.1772,-0.1785,-0.1825,-0.1853,-0.1877,-0.1927,-0.1938,-0.1942,-0.1899,-0.1899,-0.1849,-0.1764,-0.1729,-0.1642,-0.1628,-0.1668,-0.1548,-0.1542,-0.1542,-0.1618,-0.1409,-0.1392,-0.1605,-0.1606,-0.1607,-0.1579,0,-0.1792,-0.1948,-0.196,-0.2072,-0.2137,-0.2091,-0.2133,-0.2122,-0.2077,-0.2055,-0.1969,-0.1926,-0.1857,-0.1811,-0.18,-0.1678,-0.1686,-0.1683,-0.1524,-0.1521,-0.1331,-0.1392,-0.1194,-0.1136,-0.1583,-0.1583,-0.1584,0,-0.1933,-0.2011,-0.2159,-0.2216,-0.2237,-0.2283,-0.2293,-0.2318,-0.2268,-0.2225,-0.2173,-0.2075,-0.2042,-0.1959,-0.1867,-0.1865,-0.1784,-0.1704,-0.1698,-0.1449,-0.1318,-0.1115,-0.1126,-0.0827,-0.159,-0.1589,-0.1589,0,-0.2008,-0.2139,-0.2255,-0.2284,-0.2347,-0.238,-0.239,-0.2364,-0.2361,-0.2314,-0.228,-0.2215,-0.2148,-0.2067,-0.1896,-0.1888,-0.1778,-0.1726,-0.1481,-0.1466,-0.1238,-0.1198,-0.0945,-0.1702,-0.1702,-0.1702,-0.1702,0,-0.2127,-0.2211,-0.2295,-0.2354,-0.2442,-0.245,-0.25,-0.249,-0.2459,-0.2445,-0.2359,-0.2322,-0.2172,-0.2065,-0.1946,-0.1709,-0.1813,-0.152,-0.1444,-0.1289,-0.1255,-0.0933,-0.0882,-0.1701,-0.1701,-0.1701,-0.1702,0,-0.2196,-0.2267,-0.2383,-0.2465,-0.2487,-0.2539,-0.2562,-0.2579,-0.2543,-0.2523,-0.2506,-0.2401,-0.2245,-0.2075,-0.1904,-0.1725,-0.1359,-0.1448,-0.1275,-0.1176,-0.0623,-0.0592,-0.0398,-0.0267,-0.1174,-0.1169,-0.1164,0,-0.2253,-0.2329,-0.2446,-0.2501,-0.254,-0.2603,-0.2636,-0.2624,-0.2623,-0.2561,-0.2548,-0.2401,-0.2267,-0.1921,-0.1577,-0.1295,-0.1175,-0.0935,-0.087,-0.0566,-0.0478,-0.0509,-0.0418,-0.0661,-0.0653,-0.0646,-0.0641,0,-0.2319,-0.2359,-0.2438,-0.2559,-0.2622,-0.2677,-0.2711,-0.2721,-0.2687,-0.266,-0.2585,-0.2476,-0.2073,-0.1612,-0.1169,-0.0984,-0.0677,-0.0781,-0.0513,-0.0096,-0.0073,0.0086,-0.0729,-0.058,-0.0586,-0.0591,-0.0594,-0.0596,-0.2325,-0.2389,-0.2486,-0.259,-0.2666,-0.2711,-0.2703,-0.2718,-0.2702,-0.2526,-0.2523,-0.2128,-0.1528,-0.0851,-0.0673,0.0019,-0.0223,0.0247,0.0237,0.0163,0.0371,-0.0302,-0.0018,-0.0021,-0.0023,-0.0025,-0.0027,0,-0.2296,-0.2383,-0.2503,-0.2602,-0.2656,-0.2697,-0.2713,-0.2625,-0.256,-0.2275,-0.2115,-0.1204,-0.0602,-0.0029,0.0773,0.1062,0.1014,0.1178,0.1182,0.1209,0.062,0.0739,0.1261,0.1261,0.1261,0.126,0.126,0.126,-0.2275,-0.2368,-0.2447,-0.2541,-0.26,-0.2557,-0.2529,-0.2386,-0.2115,-0.1512,-0.0848,-0.0394,0.0435,0.1237,0.1901,0.1927,0.2068,0.2016,0.2019,0.1668,0.158,0.1496,0.1631,0.2331,0.2332,0.2667,0.267,0.2673]}],[{"header":{"parameterUnit":"m.s-1","parameterCategory":2,"la1":30.2991,"la2":30.254,"lo1":-89.0895,"lo2":-89.0444,"dy":0.0017,"dx":0.0017,"nx":28,"ny":28,"refTime":"2025-07-11T09:00:00:Z","depth":"2","parameterNumber":2,"parameterNumberName":"U-component_of_CURRENTS"},"data":[0,0,0,0,0,0,0,0,0,0,0,0,0,0,0,0,0,0,0,0,0,0,0,0,0,0,0,0,0,0,0,0,0,0,0,0,0,0,0,0,0,0,0,0,0,0,0,0,0,0,0,0,0,0,0,0,0,0,-0.1985,-0.1985,0,-0.1994,-0.1995,-0.1995,-0.2085,-0.2087,-0.2089,-0.209,-0.2215,-0.2216,-0.2218,0,0,0,0,0,0,0,0,0,0,0,0,0,-0.2001,-0.2,-0.1985,-0.1985,-0.1985,-0.1994,-0.1995,-0.1995,-0.2084,-0.2087,-0.2089,-0.2091,-0.2214,-0.2216,-0.2218,0,0,0,0,0,0,0,0,0,0,0,0,0,-0.2003,-0.2,-0.1985,-0.2029,-0.2032,-0.1994,-0.1995,-0.1995,-0.2084,-0.2087,-0.209,-0.2093,-0.2214,-0.2216,-0.2218,-0.2172,0,0,-0.2225,-0.2226,0,0,0,0,0,0,0,0,-0.2003,-0.2003,-0.2022,-0.2026,-0.203,-0.2039,-0.2046,-0.2059,-0.2083,-0.2067,-0.2091,-0.2094,-0.2163,-0.2169,-0.2167,-0.2178,-0.2183,-0.2225,-0.2226,-0.2227,-0.2228,0,0,0,0,0,0,0,-0.2003,-0.2002,-0.1992,-0.2022,-0.2026,-0.2032,-0.2036,-0.2048,-0.2102,-0.2069,-0.2075,-0.207,-0.2167,-0.2164,-0.2171,-0.2185,-0.2225,-0.2227,-0.2228,-0.2229,-0.2225,-0.2223,0,0,0,0,0,0,-0.1995,-0.2002,-0.1991,-0.1992,-0.202,-0.2029,-0.2034,-0.2035,-0.21,-0.2111,-0.2068,-0.2074,-0.2159,-0.2168,-0.2175,-0.223,-0.2227,-0.2229,-0.2231,-0.2226,-0.2224,-0.2223,0,0,0,0,0,0,-0.1995,-0.1994,-0.1991,-0.1995,-0.1995,-0.2026,-0.2026,-0.2034,-0.2054,-0.2097,-0.2112,-0.2082,-0.2162,-0.2172,-0.2191,-0.2233,-0.223,-0.2232,-0.2228,-0.2226,-0.2224,-0.2273,0,0,0,0,0,0,-0.1995,-0.1994,-0.1995,-0.1994,-0.1994,-0.1997,-0.2023,-0.2032,-0.2044,-0.2053,-0.2114,-0.2127,-0.2165,-0.2187,-0.2193,-0.2236,-0.2234,-0.223,-0.2227,-0.2224,-0.2273,-0.2273,-0.2273,0,0,0,0,0,-0.1996,-0.1982,-0.1995,-0.1993,-0.1994,-0.1997,-0.1999,-0.2032,-0.2042,-0.2059,-0.2079,-0.2127,-0.2175,-0.2187,-0.2195,-0.2239,-0.2231,-0.2228,-0.2224,-0.2274,-0.2273,-0.2273,0,0,0,0,0,0,-0.1992,-0.1989,-0.2004,-0.1992,-0.2008,-0.2012,-0.2017,-0.2028,-0.2051,-0.2061,-0.2103,-0.2117,-0.2153,-0.2159,-0.2171,-0.2219,-0.2212,-0.221,-0.2247,-0.2247,-0.2246,-0.228,-0.2236,0,0,0,0,0,-0.1986,-0.1979,-0.1987,-0.1981,-0.1987,-0.1999,-0.2002,-0.2023,-0.2036,-0.2051,-0.2085,-0.2109,-0.2135,-0.2163,-0.2181,-0.2199,-0.22,-0.2227,-0.2227,-0.2227,-0.2252,-0.2278,-0.2284,-0.2212,-0.2212,-0.2212,0,0,-0.198,-0.1978,-0.1974,-0.198,-0.199,-0.2014,-0.2011,-0.2018,-0.2052,-0.2057,-0.2104,-0.2109,-0.2133,-0.2168,-0.2185,-0.219,-0.2233,-0.2223,-0.2224,-0.225,-0.2275,-0.2283,-0.229,-0.221,-0.221,-0.2211,0,0,-0.1969,-0.1967,-0.1967,-0.1984,-0.1998,-0.2013,-0.2017,-0.2029,-0.2057,-0.2075,-0.2093,-0.2114,-0.2144,-0.2184,-0.2204,-0.2199,-0.2224,-0.2199,-0.2247,-0.227,-0.2278,-0.2286,-0.2248,-0.2252,-0.2208,-0.2209,-0.2209,0,-0.1971,-0.1975,-0.1969,-0.1988,-0.2011,-0.2018,-0.2049,-0.2067,-0.2086,-0.211,-0.2103,-0.2146,-0.2163,-0.2228,-0.2229,-0.2212,-0.2201,-0.2259,-0.2277,-0.2284,-0.2291,-0.2251,-0.2254,-0.2211,-0.221,-0.221,-0.221,0,-0.197,-0.1988,-0.1989,-0.2027,-0.2051,-0.2069,-0.2103,-0.2132,-0.2148,-0.2166,-0.2213,-0.2214,-0.2256,-0.2251,-0.2247,-0.2303,-0.2268,-0.2272,-0.2295,-0.2302,-0.2257,-0.226,-0.2213,-0.2213,-0.2212,-0.2212,0,0,-0.1942,-0.1985,-0.1988,-0.2031,-0.2077,-0.2099,-0.2159,-0.2216,-0.2262,-0.2273,-0.2317,-0.2353,-0.2349,-0.2367,-0.2361,-0.2375,-0.2385,-0.2347,-0.2347,-0.2337,-0.2396,-0.2256,-0.2245,-0.2402,-0.2404,-0.2406,-0.2329,0,-0.1957,-0.2001,-0.2021,-0.2092,-0.2131,-0.2177,-0.2232,-0.2285,-0.2322,-0.2357,-0.2369,-0.2395,-0.2397,-0.2402,-0.2429,-0.2395,-0.2403,-0.2403,-0.2365,-0.2363,-0.2265,-0.2249,-0.2074,-0.1983,-0.2332,-0.2332,-0.2333,0,-0.1952,-0.1993,-0.2054,-0.2148,-0.2169,-0.2213,-0.232,-0.237,-0.2427,-0.245,-0.2496,-0.2484,-0.2513,-0.2485,-0.2501,-0.2502,-0.2464,-0.2428,-0.2425,-0.2292,-0.2231,-0.2037,-0.1975,-0.2338,-0.2337,-0.2337,-0.2337,0,-0.194,-0.2018,-0.2072,-0.2103,-0.2202,-0.2252,-0.2311,-0.2394,-0.242,-0.2499,-0.2511,-0.2561,-0.2543,-0.2556,-0.2489,-0.2504,-0.2454,-0.2467,-0.2306,-0.2293,-0.2137,-0.2107,-0.2479,-0.2479,-0.2479,-0.2479,-0.2479,0,-0.1947,-0.1993,-0.2071,-0.2107,-0.2172,-0.2255,-0.2331,-0.2398,-0.2449,-0.2459,-0.2552,-0.2536,-0.2561,-0.2523,-0.2496,-0.2391,-0.2474,-0.2311,-0.2276,-0.2136,-0.2109,-0.2424,-0.2419,-0.2476,-0.2477,-0.2477,-0.2478,0,-0.1916,-0.1969,-0.2033,-0.2137,-0.216,-0.221,-0.2291,-0.2318,-0.2428,-0.2438,-0.2446,-0.2484,-0.2446,-0.244,-0.2393,-0.2359,-0.2293,-0.2232,-0.2027,-0.1971,-0.2113,-0.2111,-0.2066,-0.2061,-0.2056,-0.2053,-0.205,0,-0.1902,-0.1926,-0.2015,-0.2029,-0.2071,-0.2149,-0.2159,-0.2266,-0.2285,-0.2381,-0.234,-0.2328,-0.2258,-0.2157,-0.2083,-0.2001,-0.2121,-0.1811,-0.1824,-0.2106,-0.2077,-0.2082,-0.2085,-0.1613,-0.1606,-0.1601,-0.1597,0,-0.1856,-0.1877,-0.1916,-0.1942,-0.1959,-0.2009,-0.2054,-0.2035,-0.2142,-0.2156,-0.2138,-0.2087,-0.2,-0.1807,-0.1707,-0.1652,-0.1821,-0.1697,-0.206,-0.1742,-0.1672,-0.1646,-0.1666,-0.155,-0.1554,-0.1558,-0.156,-0.1562,-0.1789,-0.1787,-0.1808,-0.1826,-0.184,-0.1841,-0.1812,-0.1846,-0.1817,-0.178,-0.1858,-0.1752,-0.1714,-0.1439,-0.1356,-0.1315,-0.1449,-0.1421,-0.1441,-0.1466,-0.1425,-0.1351,-0.1157,-0.116,-0.1162,-0.1163,-0.1165,0,-0.1692,-0.1685,-0.1685,-0.169,-0.1632,-0.1712,-0.1693,-0.1624,-0.1516,-0.151,-0.1481,-0.1284,-0.1129,-0.1118,-0.0963,-0.0938,-0.0972,-0.0917,-0.0975,-0.1019,-0.106,-0.1004,-0.0621,-0.062,-0.0619,-0.0618,0,0,-0.1638,-0.1584,-0.1577,-0.1461,-0.1455,-0.135,-0.13,-0.1217,-0.119,-0.1032,-0.0963,-0.105,-0.1063,-0.085,-0.0797,-0.0687,-0.0858,-0.0647,-0.1075,-0.1186,-0.1226,-0.1328,-0.1286,0,0,0,0,0]},{"header":{"parameterUnit":"m.s-1","parameterCategory":2,"la1":30.2991,"la2":30.254,"lo1":-89.0895,"lo2":-89.0444,"dy":0.0017,"dx":0.0017,"nx":28,"ny":28,"refTime":"2025-07-11T09:00:00:Z","depth":"2","parameterNumber":3,"parameterNumberName":"V-component_of_CURRENTS"},"data":[0,0,0,0,0,0,0,0,0,0,0,0,0,0,0,0,0,0,0,0,0,0,0,0,0,0,0,0,0,0,0,0,0,0,0,0,0,0,0,0,0,0,0,0,0,0,0,0,0,0,0,0,0,0,0,0,0,0,-0.0162,-0.0161,0,-0.0082,-0.0081,-0.008,-0.0009,-0.0008,-0.0007,-0.0007,0.0151,0.0154,0.0158,0,0,0,0,0,0,0,0,0,0,0,0,0,-0.0233,-0.0232,-0.0162,-0.0161,-0.016,-0.0083,-0.0081,-0.008,-0.0009,-0.0008,-0.0007,-0.0007,0.015,0.0154,0.0158,0,0,0,0,0,0,0,0,0,0,0,0,0,-0.0181,-0.0232,-0.0162,-0.0117,-0.0112,-0.0083,-0.0081,-0.008,-0.0009,-0.0008,-0.0007,-0.0006,0.0148,0.0153,0.0159,0.0172,0,0,0.0175,0.0177,0,0,0,0,0,0,0,0,-0.0184,-0.0178,-0.0124,-0.012,-0.0115,-0.0056,-0.0049,0.0008,-0.0009,-0.0046,-0.0007,-0.0006,0.0087,0.0097,0.0112,0.018,0.0187,0.0176,0.0179,0.0181,0.0183,0,0,0,0,0,0,0,-0.0188,-0.0181,-0.0128,-0.0124,-0.0118,-0.0095,-0.0086,-0.0038,0.0017,-0.0043,-0.0038,-0.0033,0.009,0.0106,0.0116,0.0189,0.0175,0.018,0.0184,0.0186,0.0282,0.0282,0,0,0,0,0,0,-0.0204,-0.0185,-0.0131,-0.0126,-0.015,-0.0095,-0.0085,-0.0074,0.0015,0.0028,-0.0034,-0.003,0.0097,0.011,0.0122,0.0161,0.0181,0.0186,0.0189,0.0283,0.0282,0.0281,0,0,0,0,0,0,-0.0206,-0.02,-0.0134,-0.0156,-0.0146,-0.0095,-0.0083,-0.0073,-0.0053,0.002,0.0036,-0.0023,0.0098,0.0115,0.0156,0.0167,0.0189,0.0194,0.0284,0.0283,0.0282,0.0228,0,0,0,0,0,0,-0.0208,-0.0201,-0.02,-0.0157,-0.0145,-0.0116,-0.0084,-0.0073,-0.0052,-0.0046,0.0034,0.005,0.01,0.0147,0.0161,0.0175,0.0198,0.0284,0.0283,0.0282,0.0231,0.0225,0.0221,0,0,0,0,0,-0.0211,-0.0207,-0.0201,-0.0194,-0.0145,-0.0116,-0.0108,-0.0067,-0.0053,-0.0045,-0.0001,0.0048,0.0149,0.0151,0.0167,0.0183,0.0285,0.0284,0.0282,0.0233,0.0226,0.0221,0,0,0,0,0,0,-0.0232,-0.0199,-0.019,-0.0176,-0.0152,-0.0105,-0.0094,-0.0073,-0.0033,-0.0027,0.004,0.0058,0.01,0.0138,0.0138,0.0203,0.0225,0.0227,0.0182,0.0177,0.0172,0.016,0.0202,0,0,0,0,0,-0.0242,-0.0232,-0.0199,-0.0189,-0.018,-0.0142,-0.0127,-0.0102,-0.0063,-0.0044,0.0008,0.0059,0.0104,0.0136,0.0182,0.0218,0.0282,0.0236,0.0231,0.0227,0.0226,0.0325,0.033,0.0276,0.0276,0.0276,0,0,-0.0248,-0.0229,-0.0223,-0.0194,-0.0172,-0.0167,-0.0129,-0.0109,-0.0099,-0.0033,-0.0002,0.0045,0.0107,0.0147,0.017,0.0184,0.0275,0.0225,0.0221,0.0223,0.0325,0.033,0.0335,0.0275,0.0276,0.0276,0,0,-0.0259,-0.024,-0.024,-0.0229,-0.0205,-0.0182,-0.0181,-0.014,-0.0115,-0.0088,-0.0039,0.0008,0.0076,0.0126,0.0159,0.0151,0.0242,0.0166,0.0142,0.0238,0.0244,0.025,0.034,0.0355,0.0168,0.0168,0.0168,0,-0.0271,-0.0272,-0.0236,-0.024,-0.0243,-0.0196,-0.0209,-0.0173,-0.0124,-0.0105,-0.0085,0.0015,0.0068,0.0125,0.012,0.0144,0.0211,0.0162,0.0234,0.0242,0.0249,0.034,0.0357,0.0165,0.0165,0.0166,0.0166,0,-0.0286,-0.0295,-0.0295,-0.029,-0.0282,-0.0285,-0.0247,-0.0226,-0.0196,-0.0156,-0.0096,-0.0024,0.0039,0.0062,0.009,0.016,0.0195,0.0216,0.0253,0.0252,0.0347,0.0365,0.0161,0.0162,0.0163,0.0164,0,0,-0.0296,-0.0308,-0.031,-0.034,-0.0318,-0.0321,-0.03,-0.0272,-0.0251,-0.0188,-0.0148,-0.0073,-0.0021,0.0017,0.0073,0.0151,0.0256,0.0197,0.0204,0.0293,0.0476,0.0406,0.0421,0.0298,0.0301,0.0303,0.0523,0,-0.0328,-0.0373,-0.0355,-0.0403,-0.0434,-0.0396,-0.0383,-0.0346,-0.0288,-0.0228,-0.0137,-0.0071,-0.0039,0.0003,0.0082,0.022,0.0302,0.0195,0.0458,0.0466,0.041,0.0438,0.0404,0.0589,0.0542,0.0545,0.0547,0,-0.0352,-0.0391,-0.0449,-0.0492,-0.0497,-0.0505,-0.0487,-0.0466,-0.0361,-0.0308,-0.0217,-0.0123,0.0,0.0027,0.0265,0.02,0.0324,0.0427,0.0439,0.0405,0.043,0.0582,0.0625,0.0579,0.0577,0.0574,0.0572,0,-0.0411,-0.0457,-0.0519,-0.0534,-0.0557,-0.0569,-0.0567,-0.0493,-0.0463,-0.0342,-0.0261,-0.0128,-0.0007,0.0145,0.0346,0.0327,0.0613,0.0622,0.0677,0.0675,0.0711,0.0705,0.0786,0.0786,0.0785,0.0785,0.0784,0,-0.0467,-0.0518,-0.0556,-0.0599,-0.0661,-0.0642,-0.0655,-0.0617,-0.0525,-0.0455,-0.03,-0.0193,0.0035,0.0226,0.0365,0.0576,0.064,0.0681,0.0728,0.0687,0.0676,0.0712,0.0701,0.0793,0.0791,0.079,0.0788,0,-0.0528,-0.0548,-0.0634,-0.0684,-0.0697,-0.0745,-0.0736,-0.072,-0.0603,-0.0491,-0.0439,-0.02,0.0049,0.0266,0.0546,0.0626,0.0809,0.0863,0.0784,0.0813,0.0807,0.079,0.0963,0.0962,0.0962,0.0961,0.0961,0,-0.0566,-0.0616,-0.0709,-0.0756,-0.0785,-0.0832,-0.0844,-0.0785,-0.0741,-0.0494,-0.0432,-0.0154,0.0043,0.0411,0.0593,0.0831,0.0845,0.0909,0.0839,0.0798,0.0827,0.081,0.0794,0.0894,0.0893,0.0892,0.0892,0,-0.0649,-0.0676,-0.075,-0.0846,-0.0894,-0.0935,-0.0935,-0.0914,-0.078,-0.0652,-0.0425,-0.0244,0.0146,0.0391,0.0665,0.0778,0.0853,0.0895,0.0941,0.0804,0.0736,0.0762,0.0749,0.0885,0.0886,0.0886,0.0887,0.0887,-0.0703,-0.0771,-0.0851,-0.0939,-0.0987,-0.1008,-0.1026,-0.0977,-0.091,-0.0684,-0.0474,-0.0165,0.0104,0.0477,0.0656,0.0817,0.0835,0.0874,0.0876,0.088,0.0782,0.0711,0.084,0.084,0.084,0.084,0.0841,0,-0.0774,-0.0837,-0.0928,-0.1022,-0.1069,-0.1072,-0.1057,-0.1032,-0.0953,-0.0706,-0.0473,-0.0155,0.0144,0.0423,0.0678,0.0811,0.0816,0.0815,0.0819,0.0825,0.083,0.0728,0.0774,0.0774,0.0774,0.0774,0,0,-0.0814,-0.0914,-0.096,-0.1063,-0.1109,-0.1139,-0.1127,-0.1065,-0.0901,-0.0709,-0.048,-0.0157,0.0199,0.0342,0.0537,0.0682,0.0705,0.0672,0.0714,0.0702,0.0705,0.0855,0.0703,0,0,0,0,0]}],[{"header":{"parameterUnit":"m.s-1","parameterCategory":2,"la1":30.2991,"la2":30.254,"lo1":-89.0895,"lo2":-89.0444,"dy":0.0017,"dx":0.0017,"nx":28,"ny":28,"refTime":"2025-07-11T09:00:00:Z","depth":"4","parameterNumber":2,"parameterNumberName":"U-component_of_CURRENTS"},"data":[0,0,0,0,0,0,0,0,0,0,0,0,0,0,0,0,0,0,0,0,0,0,0,0,0,0,0,0,0,0,0,0,0,0,0,0,0,0,0,0,0,0,0,0,0,0,0,0,0,0,0,0,0,0,0,0,0,0,-0.1477,-0.1478,0,-0.1515,-0.1515,-0.1516,-0.1554,-0.1554,-0.1555,-0.1556,-0.1599,-0.1599,-0.16,0,0,0,0,0,0,0,0,0,0,0,0,0,-0.143,-0.1431,-0.1477,-0.1478,-0.1479,-0.1515,-0.1515,-0.1516,-0.1553,-0.1554,-0.1555,-0.1556,-0.1599,-0.1599,-0.16,0,0,0,0,0,0,0,0,0,0,0,0,0,-0.1456,-0.1431,-0.1477,-0.1504,-0.1506,-0.1515,-0.1515,-0.1516,-0.1553,-0.1554,-0.1555,-0.1556,-0.1599,-0.1599,-0.16,-0.1583,0,0,-0.1602,-0.1603,0,0,0,0,0,0,0,0,-0.1454,-0.1457,-0.1499,-0.1502,-0.1505,-0.1533,-0.1515,-0.1539,-0.1553,-0.1533,-0.1556,-0.1557,-0.1578,-0.158,-0.1582,-0.1585,-0.1587,-0.1602,-0.1603,-0.1603,-0.1603,0,0,0,0,0,0,0,-0.1452,-0.1456,-0.149,-0.15,-0.1503,-0.1511,-0.1516,-0.1519,-0.1547,-0.1535,-0.1538,-0.1546,-0.1579,-0.1581,-0.1583,-0.1588,-0.1602,-0.1603,-0.1603,-0.1604,-0.1681,-0.1682,0,0,0,0,0,0,-0.1451,-0.1454,-0.1489,-0.1491,-0.1484,-0.1511,-0.1516,-0.1521,-0.1547,-0.1553,-0.1545,-0.1547,-0.1579,-0.1582,-0.1585,-0.1656,-0.1603,-0.1604,-0.1604,-0.1679,-0.1681,-0.1683,0,0,0,0,0,0,-0.145,-0.1454,-0.1487,-0.1475,-0.1481,-0.1511,-0.1516,-0.1521,-0.1552,-0.1555,-0.1561,-0.1574,-0.158,-0.1584,-0.162,-0.1655,-0.1604,-0.1605,-0.1677,-0.168,-0.1682,-0.174,0,0,0,0,0,0,-0.1448,-0.1453,-0.147,-0.1475,-0.1481,-0.1517,-0.1515,-0.1521,-0.1554,-0.1558,-0.1581,-0.1585,-0.1581,-0.162,-0.1621,-0.1655,-0.1605,-0.1675,-0.1678,-0.1681,-0.1737,-0.1745,-0.1752,0,0,0,0,0,-0.1447,-0.1459,-0.147,-0.1476,-0.1499,-0.1518,-0.1522,-0.1545,-0.1554,-0.1575,-0.1594,-0.1585,-0.164,-0.1621,-0.1623,-0.1657,-0.1674,-0.1677,-0.1681,-0.1733,-0.1743,-0.1751,0,0,0,0,0,0,-0.1449,-0.1465,-0.1477,-0.1495,-0.1519,-0.1526,-0.155,-0.156,-0.1589,-0.1599,-0.16,-0.1606,-0.165,-0.1646,-0.1625,-0.169,-0.1657,-0.1662,-0.1697,-0.1706,-0.1713,-0.17,-0.1606,0,0,0,0,0,-0.1456,-0.1473,-0.1489,-0.1509,-0.1523,-0.154,-0.1556,-0.157,-0.1589,-0.1604,-0.1621,-0.1641,-0.166,-0.1678,-0.169,-0.1722,-0.1696,-0.1748,-0.1755,-0.1762,-0.1753,-0.1737,-0.1741,-0.1695,-0.1695,-0.1695,0,0,-0.1465,-0.1475,-0.1487,-0.1512,-0.1531,-0.1559,-0.1553,-0.1584,-0.1615,-0.1603,-0.1658,-0.1665,-0.1674,-0.1714,-0.1734,-0.172,-0.1766,-0.1766,-0.1772,-0.1759,-0.1741,-0.1745,-0.1749,-0.1697,-0.1697,-0.1696,0,0,-0.1481,-0.15,-0.152,-0.1542,-0.1576,-0.1588,-0.1603,-0.1629,-0.1654,-0.1696,-0.1698,-0.1726,-0.176,-0.1772,-0.178,-0.1835,-0.1803,-0.185,-0.188,-0.1866,-0.1868,-0.1871,-0.1857,-0.1858,-0.1857,-0.1858,-0.1858,0,-0.1496,-0.1518,-0.1531,-0.1558,-0.1584,-0.1605,-0.1638,-0.1663,-0.17,-0.1717,-0.1727,-0.1771,-0.1785,-0.182,-0.1847,-0.1851,-0.1834,-0.1845,-0.1873,-0.1874,-0.1876,-0.1861,-0.1861,-0.1861,-0.186,-0.186,-0.186,0,-0.1519,-0.1553,-0.1569,-0.1611,-0.164,-0.1672,-0.1706,-0.1741,-0.1771,-0.1786,-0.1832,-0.1846,-0.1867,-0.1888,-0.1887,-0.1913,-0.1895,-0.1879,-0.1845,-0.1883,-0.1866,-0.1865,-0.1865,-0.1864,-0.1863,-0.1862,0,0,-0.1511,-0.1574,-0.1583,-0.1613,-0.1672,-0.1691,-0.1751,-0.1795,-0.1818,-0.1864,-0.1888,-0.1938,-0.1932,-0.1941,-0.1945,-0.1943,-0.1951,-0.1922,-0.1919,-0.1899,-0.1916,-0.1789,-0.1775,-0.1936,-0.1936,-0.1936,-0.1906,0,-0.1532,-0.1586,-0.1616,-0.1679,-0.1711,-0.1753,-0.1798,-0.1839,-0.1871,-0.1898,-0.1921,-0.1944,-0.1957,-0.1964,-0.197,-0.195,-0.1947,-0.196,-0.1889,-0.1887,-0.1761,-0.1769,-0.1936,-0.1904,-0.1904,-0.1903,-0.1903,0,-0.1537,-0.1577,-0.1641,-0.1705,-0.1723,-0.1765,-0.1825,-0.1865,-0.1905,-0.1925,-0.1952,-0.1957,-0.1983,-0.1974,-0.1967,-0.1974,-0.1951,-0.1933,-0.1931,-0.1783,-0.1756,-0.1855,-0.19,-0.19,-0.19,-0.1901,-0.1901,0,-0.1506,-0.1587,-0.1639,-0.1665,-0.1744,-0.1782,-0.1824,-0.1874,-0.1882,-0.1935,-0.1932,-0.1968,-0.1971,-0.1961,-0.1946,-0.1953,-0.1912,-0.1913,-0.1779,-0.177,-0.1869,-0.1867,-0.1889,-0.1889,-0.1889,-0.1889,-0.1889,0,-0.1495,-0.1537,-0.1632,-0.1659,-0.1701,-0.1771,-0.1798,-0.1844,-0.1876,-0.1868,-0.1935,-0.192,-0.1963,-0.1948,-0.1938,-0.1847,-0.1907,-0.177,-0.1745,-0.1898,-0.19,-0.1868,-0.1866,-0.1888,-0.1888,-0.1889,-0.1889,0,-0.1438,-0.1509,-0.1563,-0.166,-0.1685,-0.1713,-0.1759,-0.1755,-0.1821,-0.1812,-0.1824,-0.1873,-0.1853,-0.1874,-0.1852,-0.1808,-0.1753,-0.1706,-0.1871,-0.1858,-0.1627,-0.163,-0.1545,-0.154,-0.1536,-0.1532,-0.1529,0,-0.1409,-0.1436,-0.1536,-0.1552,-0.1598,-0.1641,-0.1643,-0.1711,-0.17,-0.1761,-0.1734,-0.175,-0.1768,-0.1632,-0.1686,-0.1644,-0.1627,-0.1605,-0.1613,-0.1604,-0.1588,-0.1597,-0.1604,-0.1522,-0.1521,-0.152,-0.1519,0,-0.1339,-0.1387,-0.1425,-0.1458,-0.148,-0.1485,-0.1511,-0.1486,-0.1553,-0.1624,-0.1579,-0.1565,-0.1535,-0.1527,-0.1501,-0.148,-0.1625,-0.1561,-0.157,-0.1577,-0.1576,-0.1567,-0.1579,-0.1505,-0.1507,-0.1508,-0.1509,0,-0.1273,-0.1272,-0.1319,-0.1329,-0.1354,-0.1326,-0.1356,-0.1336,-0.1332,-0.1417,-0.1399,-0.1438,-0.1501,-0.1439,-0.1421,-0.1382,-0.1363,-0.1336,-0.1356,-0.1373,-0.1333,-0.1307,-0.1115,0,0,0,0,0,-0.1197,-0.1173,-0.1176,-0.1176,-0.1196,-0.1205,-0.1254,-0.1288,-0.136,-0.1275,-0.1331,-0.1298,-0.1266,-0.1295,-0.1215,-0.1353,-0.1379,-0.1258,-0.1361,-0.1424,-0.1441,-0.1411,0,0,0,0,0,0,-0.114,-0.1143,-0.113,-0.104,-0.1009,-0.1002,-0.1032,-0.109,-0.1053,-0.1148,-0.1124,-0.1207,-0.1184,-0.1266,-0.1177,-0.1187,-0.1225,-0.1291,-0.1288,-0.1414,-0.143,-0.1443,-0.1418,0,0,0,0,0]},{"header":{"parameterUnit":"m.s-1","parameterCategory":2,"la1":30.2991,"la2":30.254,"lo1":-89.0895,"lo2":-89.0444,"dy":0.0017,"dx":0.0017,"nx":28,"ny":28,"refTime":"2025-07-11T09:00:00:Z","depth":"4","parameterNumber":3,"parameterNumberName":"V-component_of_CURRENTS"},"data":[0,0,0,0,0,0,0,0,0,0,0,0,0,0,0,0,0,0,0,0,0,0,0,0,0,0,0,0,0,0,0,0,0,0,0,0,0,0,0,0,0,0,0,0,0,0,0,0,0,0,0,0,0,0,0,0,0,0,-0.0133,-0.0132,0,-0.0085,-0.0084,-0.0084,-0.0051,-0.0051,-0.005,-0.005,0.0003,0.0004,0.0005,0,0,0,0,0,0,0,0,0,0,0,0,0,-0.0172,-0.0172,-0.0133,-0.0132,-0.0132,-0.0085,-0.0084,-0.0084,-0.0051,-0.0051,-0.005,-0.005,0.0002,0.0004,0.0005,0,0,0,0,0,0,0,0,0,0,0,0,0,-0.0142,-0.0171,-0.0133,-0.011,-0.0108,-0.0085,-0.0084,-0.0083,-0.0051,-0.0051,-0.005,-0.005,0.0002,0.0004,0.0005,0.0012,0,0,0.0011,0.0012,0,0,0,0,0,0,0,0,-0.0144,-0.0141,-0.0114,-0.0112,-0.0109,-0.0074,-0.0079,-0.0052,-0.0051,-0.0072,-0.005,-0.005,-0.0023,-0.0019,-0.001,0.0014,0.0016,0.0011,0.0012,0.0013,0.0014,0,0,0,0,0,0,0,-0.0146,-0.0142,-0.0113,-0.0114,-0.011,-0.0095,-0.009,-0.0073,-0.0049,-0.007,-0.0068,-0.0064,-0.0022,-0.0012,-0.0008,0.0017,0.0011,0.0013,0.0014,0.0015,0.008,0.008,0,0,0,0,0,0,-0.0155,-0.0144,-0.0115,-0.0112,-0.0127,-0.0094,-0.0089,-0.0085,-0.0049,-0.0044,-0.0064,-0.0062,-0.0015,-0.0011,-0.0007,0.0026,0.0013,0.0015,0.0016,0.0079,0.008,0.008,0,0,0,0,0,0,-0.0156,-0.0153,-0.0116,-0.0128,-0.0122,-0.0094,-0.0089,-0.0084,-0.0075,-0.0045,-0.0039,-0.006,-0.0015,-0.0009,0.0014,0.0028,0.0016,0.0017,0.0078,0.0079,0.008,0.0077,0,0,0,0,0,0,-0.0157,-0.0153,-0.0155,-0.0128,-0.0122,-0.0104,-0.009,-0.0084,-0.0073,-0.007,-0.0039,-0.0034,-0.0014,0.0011,0.0016,0.003,0.0019,0.0078,0.0079,0.008,0.0077,0.0078,0.0079,0,0,0,0,0,-0.0159,-0.0158,-0.0156,-0.0152,-0.0125,-0.0104,-0.0099,-0.0078,-0.0073,-0.0069,-0.0044,-0.0035,0.0022,0.0013,0.0019,0.0034,0.0077,0.0078,0.008,0.0076,0.0078,0.0079,0,0,0,0,0,0,-0.0174,-0.0154,-0.0151,-0.0144,-0.0128,-0.0099,-0.0094,-0.0082,-0.006,-0.0058,-0.003,-0.0023,0.0004,0.0017,0.0006,0.0056,0.0052,0.0055,0.0048,0.0049,0.0051,0.0032,0.002,0,0,0,0,0,-0.0181,-0.0177,-0.0155,-0.0151,-0.0145,-0.0123,-0.0113,-0.01,-0.0077,-0.0067,-0.0043,-0.0016,0.0014,0.0029,0.0052,0.0075,0.0093,0.009,0.0091,0.0092,0.0081,0.0124,0.0128,0.0085,0.0085,0.0085,0,0,-0.0186,-0.0175,-0.0173,-0.0155,-0.0142,-0.0135,-0.0116,-0.0103,-0.0093,-0.0065,-0.0044,-0.0015,0.002,0.0051,0.0064,0.0064,0.0116,0.0094,0.0094,0.0082,0.0126,0.013,0.0133,0.0086,0.0086,0.0085,0,0,-0.0193,-0.0186,-0.0184,-0.0176,-0.016,-0.0145,-0.0144,-0.0117,-0.0101,-0.0079,-0.0049,-0.0012,0.0022,0.006,0.0081,0.0101,0.0119,0.0108,0.0102,0.0145,0.0148,0.0152,0.019,0.0196,0.0111,0.0111,0.0111,0,-0.0202,-0.0204,-0.0181,-0.0179,-0.0184,-0.0153,-0.0161,-0.0132,-0.0099,-0.0091,-0.0075,-0.0008,0.0029,0.0073,0.0089,0.0105,0.0124,0.0094,0.0146,0.0149,0.0153,0.0191,0.0198,0.0111,0.0111,0.0111,0.0111,0,-0.0204,-0.0215,-0.0214,-0.0207,-0.0202,-0.0206,-0.0174,-0.0159,-0.0139,-0.0111,-0.0069,-0.001,0.0025,0.0056,0.0082,0.0128,0.0133,0.014,0.0139,0.0157,0.0196,0.0204,0.0112,0.0111,0.0111,0.0111,0,0,-0.0209,-0.0218,-0.0221,-0.0248,-0.0228,-0.0234,-0.021,-0.0192,-0.0192,-0.0129,-0.0118,-0.0031,-0.0002,0.0024,0.0071,0.0121,0.0183,0.0139,0.0141,0.0172,0.0271,0.0252,0.0259,0.0197,0.0198,0.0199,0.0292,0,-0.0228,-0.0261,-0.0247,-0.0285,-0.0312,-0.0287,-0.0277,-0.0251,-0.0219,-0.0192,-0.0105,-0.0074,-0.0012,0.0003,0.0069,0.0148,0.0201,0.0156,0.0253,0.0255,0.0233,0.0267,0.0202,0.0298,0.03,0.0301,0.0302,0,-0.0237,-0.0271,-0.0319,-0.0368,-0.0375,-0.0381,-0.0395,-0.0379,-0.0315,-0.0287,-0.0222,-0.0161,-0.0063,-0.0023,0.0132,0.0098,0.0179,0.0247,0.0252,0.0236,0.0251,0.0275,0.0316,0.0315,0.0314,0.0313,0.0312,0,-0.0284,-0.0324,-0.038,-0.0394,-0.0424,-0.0442,-0.0449,-0.0413,-0.0412,-0.0346,-0.0337,-0.0215,-0.0158,-0.0034,0.013,0.0124,0.0295,0.0302,0.0364,0.0364,0.0353,0.0348,0.04,0.04,0.0399,0.0399,0.0399,0,-0.0322,-0.037,-0.0414,-0.0452,-0.0524,-0.0512,-0.0558,-0.054,-0.0507,-0.0498,-0.0395,-0.0348,-0.016,-0.0032,0.0109,0.0268,0.0284,0.0364,0.0387,0.0351,0.0345,0.0359,0.0353,0.0403,0.0402,0.0401,0.0401,0,-0.0365,-0.0388,-0.0469,-0.053,-0.0552,-0.0604,-0.064,-0.0659,-0.0623,-0.0605,-0.0586,-0.0441,-0.0265,-0.0076,0.0139,0.0229,0.0387,0.0436,0.0387,0.0406,0.0429,0.0422,0.0499,0.0499,0.0499,0.0499,0.05,0,-0.0391,-0.0437,-0.0538,-0.0591,-0.0624,-0.069,-0.0725,-0.0717,-0.0722,-0.0647,-0.0631,-0.0473,-0.0352,-0.005,0.0136,0.0388,0.0419,0.0475,0.0451,0.0425,0.044,0.0433,0.0426,0.05,0.05,0.05,0.05,0,-0.0456,-0.0488,-0.0559,-0.0667,-0.0731,-0.0796,-0.0836,-0.0847,-0.0807,-0.0786,-0.0643,-0.0478,-0.0284,-0.0041,0.0152,0.0333,0.0423,0.0476,0.0477,0.0455,0.0427,0.044,0.0433,0.05,0.05,0.05,0.05,0,-0.0502,-0.0564,-0.0649,-0.0739,-0.082,-0.0863,-0.0883,-0.0856,-0.0847,-0.0745,-0.0689,-0.0464,-0.0325,-0.0069,0.0117,0.0285,0.0314,0.0337,0.0345,0.0347,0.0271,0.021,0.024,0,0,0,0,0,-0.0547,-0.0615,-0.0709,-0.0807,-0.0877,-0.0911,-0.0937,-0.0931,-0.0892,-0.0794,-0.0735,-0.0535,-0.0246,-0.0113,0.0054,0.009,0.0315,0.0282,0.0339,0.0502,0.0502,0.0437,0,0,0,0,0,0,-0.0581,-0.0675,-0.0722,-0.083,-0.089,-0.0957,-0.0965,-0.0935,-0.0864,-0.0792,-0.0619,-0.0533,-0.0236,-0.0331,0.005,0.0098,0.0145,0.0425,0.0427,0.0503,0.0502,0.0502,0.0435,0,0,0,0,0]}]]